GFSSGP_sfc_30mbdewp_132.txt.gz
Dewpoint
66 66 65 65 55 45 42 43 44 46 47 48 50 50 50 54 50 50 58 61 62 62 66 69 73 72 72 73 72 72 71 70 71 71 72 71 71 71 72 72 71 71 71 72 71 71 71 71 71
63 64 64 60 46 39 42 44 44 47 48 51 53 52 51 54 57 58 60 61 62 62 64 67 73 72 72 72 72 71 69 70 71 71 71 71 71 71 71 71 71 71 71 72 71 72 71 72 72
63 63 60 54 45 40 43 44 45 48 50 53 55 55 56 55 57 58 61 62 62 63 64 70 73 73 72 72 72 70 72 71 71 71 71 71 71 71 71 70 70 71 71 71 72 72 72 71 71
62 61 60 53 46 48 46 45 47 49 52 54 55 55 56 57 58 60 62 62 62 63 65 71 72 72 72 72 71 72 72 72 72 71 71 70 70 71 71 70 70 70 70 70 70 71 72 72 71
60 59 53 48 48 48 48 47 48 50 52 53 52 51 56 61 61 61 62 61 61 62 64 69 72 72 71 71 72 72 72 72 71 71 72 71 71 70 71 71 70 71 70 68 72 72 72 72 71
56 56 48 47 49 50 50 49 49 53 54 53 52 53 59 62 61 61 61 61 60 61 61 65 72 72 72 71 72 72 72 72 71 71 71 71 71 71 70 71 71 71 71 71 71 72 72 71 71
53 53 50 50 50 50 51 53 52 52 52 52 53 51 59 59 61 61 61 60 60 60 62 63 67 71 72 71 71 72 72 70 70 71 71 71 71 70 70 70 70 71 70 70 71 71 72 72 71
57 56 52 52 50 52 55 53 54 53 54 55 53 51 55 59 61 61 60 60 61 60 61 65 64 65 66 67 71 70 70 71 72 71 71 71 70 70 69 69 69 70 70 70 71 71 72 72 71
59 53 52 51 52 53 55 52 55 56 55 53 55 51 56 60 61 60 61 61 61 62 63 67 62 67 70 69 69 69 70 72 72 72 71 70 63 64 66 69 69 69 69 69 70 71 71 71 71
54 51 51 54 55 53 56 54 55 53 53 55 56 57 59 59 59 60 60 57 58 61 63 66 64 67 66 66 67 68 69 70 70 70 68 64 64 67 66 70 71 71 71 71 71 71 70 68 62
54 52 55 56 54 55 54 54 53 52 50 52 55 57 56 57 59 59 57 54 59 61 62 63 66 67 67 70 65 66 68 69 70 69 65 65 64 65 63 64 65 64 68 62 64 65 63 64 61
53 56 55 57 56 56 55 56 53 52 53 54 55 55 55 56 57 57 54 57 61 62 62 64 67 69 70 64 63 64 64 64 64 67 68 67 64 66 65 64 65 64 63 64 64 62 66 65 64
50 56 57 58 58 58 58 57 54 55 55 55 54 54 55 56 57 56 57 60 61 61 62 63 65 69 70 68 64 64 64 62 65 65 68 66 65 66 65 66 64 64 64 64 65 65 65 64 61
52 55 57 58 58 58 58 58 58 60 55 55 55 55 55 56 57 58 59 60 61 61 61 63 64 68 69 67 66 66 64 63 63 62 66 68 65 66 65 64 63 65 65 66 65 66 64 60 58
53 53 56 57 57 58 59 55 55 61 58 54 55 55 56 58 58 59 59 60 61 61 62 63 63 65 67 67 66 63 63 62 62 63 67 67 68 68 66 65 64 65 67 68 67 65 63 58 57
52 51 48 55 57 58 57 53 57 60 59 54 54 55 56 57 59 61 60 60 61 59 63 63 61 63 65 65 65 62 61 62 62 63 64 67 69 69 68 63 64 66 66 65 65 61 59 59 56
48 41 45 53 56 56 56 53 57 60 60 56 53 54 55 57 59 61 61 61 61 61 64 64 64 64 65 67 65 63 64 63 62 63 64 69 68 69 66 64 66 68 66 66 63 61 60 59 56
36 37 44 49 54 55 54 54 56 60 59 59 55 53 54 55 57 60 60 60 61 62 65 66 67 66 66 66 66 62 62 62 63 64 64 69 67 69 69 65 66 67 65 65 65 64 62 60 57
36 38 43 48 54 53 51 52 55 58 59 59 58 55 52 54 56 60 61 60 61 62 64 65 66 68 66 63 61 61 60 62 63 64 68 68 67 68 70 64 66 67 65 70 68 66 66 62 64
35 39 43 49 52 52 50 51 56 58 58 59 59 57 53 53 55 58 60 59 61 62 63 66 67 68 67 64 63 61 61 62 64 65 67 67 66 68 68 68 65 68 66 70 69 69 62 62 65
34 36 40 41 50 51 51 49 53 56 58 60 58 56 54 52 53 57 60 59 60 62 63 65 66 68 68 65 66 67 67 68 67 66 65 66 66 68 69 69 68 68 68 65 69 68 67 60 64
29 37 43 43 42 40 48 39 51 53 56 58 54 56 54 53 54 56 59 60 60 61 63 64 67 68 69 68 65 64 61 60 61 63 64 66 68 69 69 69 68 69 67 68 68 67 69 69 61
31 39 42 41 40 41 41 43 48 52 52 55 56 55 54 52 53 54 58 59 59 61 62 64 67 68 67 68 66 66 63 62 63 64 65 66 69 69 68 70 68 68 66 70 70 69 70 67 65
38 39 42 42 39 34 38 41 42 48 49 50 55 55 55 52 52 54 56 59 60 61 62 63 66 68 67 68 68 66 64 62 62 64 65 64 64 67 68 69 70 69 66 70 69 70 70 71 69
34 31 28 28 31 31 42 42 41 46 47 49 50 54 55 54 52 53 55 57 60 61 62 63 65 67 67 65 66 66 66 65 66 66 64 63 62 62 66 69 69 68 69 69 70 71 69 67 69
30 27 23 27 31 35 43 38 42 44 48 47 48 50 56 55 52 52 55 57 60 61 63 63 64 66 66 66 66 68 69 68 64 66 63 64 63 64 66 69 68 69 70 68 70 69 67 67 67
26 27 28 30 34 32 34 40 45 42 49 50 49 50 53 55 53 52 55 58 60 61 63 63 63 65 65 65 66 68 68 67 65 66 67 66 66 64 67 68 69 69 70 69 68 67 68 68 69
35 31 29 28 31 31 30 34 36 44 51 51 50 52 53 56 57 54 55 58 59 61 62 63 63 64 64 64 65 66 68 67 68 68 67 65 67 68 68 68 69 69 69 70 69 66 69 69 67
35 32 31 29 32 35 31 37 45 51 53 52 51 52 55 55 57 56 56 58 59 60 61 63 64 64 64 65 65 65 66 66 68 69 69 68 69 68 68 68 68 69 69 70 70 69 67 68 68
38 37 32 30 33 33 38 30 50 53 55 54 50 52 54 57 59 58 58 59 59 60 61 63 63 64 64 64 65 66 66 66 65 67 68 69 70 68 68 68 67 68 68 69 69 69 67 68 68

GFSSGP_sfc_30mbdewp_135.txt.gz
Dewpoint
63 66 64 62 58 52 39 41 44 43 44 45 47 46 47 52 51 50 57 58 59 62 67 68 72 71 72 72 72 71 70 72 71 72 72 71 72 72 72 71 71 71 71 71 71 72 70 71 71
61 63 62 61 53 40 40 42 43 45 47 49 49 48 49 52 54 56 57 58 60 61 64 67 72 72 72 72 71 71 71 72 71 72 71 71 71 71 72 71 71 72 72 71 71 71 72 72 72
64 61 60 58 51 38 40 43 44 46 50 50 52 54 51 53 54 55 58 58 60 67 65 70 72 72 72 71 70 70 71 71 71 71 72 72 71 71 70 71 71 72 72 72 72 72 72 72 72
61 61 59 54 43 43 42 44 45 47 52 51 52 52 53 55 56 57 58 59 60 64 65 72 72 72 72 71 72 72 72 72 71 71 71 72 72 70 70 71 71 71 71 71 72 72 72 71 71
59 60 52 53 41 43 43 45 46 49 51 50 50 51 54 57 58 58 58 58 60 61 63 69 72 72 72 71 72 72 71 71 71 71 71 71 71 71 70 71 70 69 71 71 72 72 72 71 71
57 53 53 44 45 44 45 48 50 51 50 50 51 52 55 57 57 57 57 56 58 60 61 66 72 71 72 72 72 72 72 72 72 71 71 71 71 71 71 71 71 71 71 71 71 71 71 71 71
54 54 50 48 47 48 49 50 50 52 50 48 50 52 54 55 57 56 56 56 57 58 58 62 67 70 71 72 72 72 71 71 71 71 71 71 70 70 71 71 71 70 71 71 71 72 71 71 70
55 54 54 49 50 50 51 52 51 51 49 50 51 51 52 55 56 57 56 55 55 56 60 61 61 64 66 68 70 71 70 71 70 71 71 70 69 68 70 71 70 70 71 71 71 72 72 71 70
56 54 52 53 53 54 52 51 54 53 51 49 50 51 54 56 56 55 55 57 57 57 63 62 62 67 68 68 68 70 71 71 71 71 71 70 62 65 68 70 70 70 70 70 71 71 71 72 71
55 52 49 53 56 56 54 56 52 51 50 49 49 53 55 56 55 55 55 54 55 60 59 62 62 64 64 64 67 69 68 68 66 65 64 63 66 64 64 69 70 70 69 70 70 70 69 71 65
52 51 53 53 53 53 54 52 53 51 49 50 51 54 55 55 55 55 53 52 55 58 60 64 63 65 66 65 64 65 67 66 68 65 62 62 62 62 59 65 65 64 68 65 68 67 67 62 60
52 54 54 56 54 54 52 54 52 54 50 50 52 54 53 53 54 54 50 52 57 58 59 61 64 68 66 66 63 63 66 62 62 63 63 63 61 64 60 61 62 62 61 62 63 60 62 61 62
53 54 55 55 54 56 56 57 53 53 50 51 52 52 52 52 54 54 53 55 59 58 61 63 66 69 67 64 62 66 62 59 63 63 63 67 66 63 63 61 64 62 59 59 60 61 62 60 60
50 53 55 56 57 56 56 58 55 55 55 50 50 50 51 55 55 54 56 57 58 59 60 62 63 67 66 64 66 62 60 60 60 60 64 67 64 67 62 62 62 60 61 61 62 65 60 57 58
50 51 53 55 57 55 56 54 55 57 60 49 50 51 53 55 54 54 57 58 59 58 59 59 62 65 68 65 65 63 60 59 58 62 67 65 66 66 63 62 66 61 64 65 63 64 60 57 56
45 47 47 53 54 57 53 49 57 58 59 52 52 53 54 55 56 56 56 59 60 58 59 60 59 62 64 64 63 61 59 59 59 61 65 66 67 66 68 62 62 62 62 60 60 60 57 55 55
42 42 48 51 54 55 55 52 56 59 58 57 55 52 54 55 58 58 56 59 56 58 62 62 62 61 62 64 63 60 61 60 59 60 62 66 66 68 69 63 64 67 60 60 61 58 58 56 53
36 38 41 48 52 54 52 52 56 57 57 56 56 56 52 54 58 58 56 58 56 59 64 65 63 65 65 64 63 60 62 60 60 60 63 66 66 66 68 63 64 69 65 60 66 60 59 56 54
36 35 42 49 52 51 50 51 55 57 58 54 56 58 54 54 58 59 57 56 60 60 65 65 66 65 65 63 61 60 59 60 60 60 66 66 67 67 69 65 65 71 67 68 65 64 63 58 59
33 30 39 42 49 48 49 47 53 56 55 55 57 56 58 53 56 58 59 55 57 60 65 66 67 67 64 63 62 60 59 60 61 65 65 65 65 67 65 68 64 67 67 68 67 67 62 59 58
28 31 39 41 49 45 47 46 51 55 56 57 58 58 59 57 59 58 59 55 56 58 62 65 67 68 66 64 62 62 62 64 64 65 63 65 66 66 68 67 68 67 69 66 67 67 66 65 59
25 31 36 37 36 38 46 38 49 53 54 59 57 55 55 56 51 55 58 58 55 58 59 65 66 67 67 66 65 65 62 62 61 61 62 65 66 66 66 67 67 67 68 72 67 65 69 67 63
34 37 34 35 35 33 32 37 46 52 52 55 57 54 53 54 53 53 55 59 55 58 58 62 65 68 67 67 68 65 63 60 60 60 66 67 67 66 66 67 67 67 65 68 69 68 69 67 65
25 33 32 35 34 28 30 34 46 49 50 52 51 50 52 54 51 50 54 59 58 58 58 60 66 68 68 67 68 66 63 66 59 61 63 62 65 66 67 67 68 68 65 68 68 69 68 71 70
25 27 24 25 24 26 42 35 47 52 46 51 52 52 53 55 48 50 54 58 58 57 59 60 64 67 67 67 66 68 66 66 66 64 62 62 59 60 67 67 68 68 69 67 68 70 69 68 68
22 22 21 26 33 36 42 33 45 43 45 45 52 54 53 55 53 50 50 58 59 58 59 60 63 65 66 66 67 68 67 66 65 66 67 61 64 60 69 69 67 67 68 68 68 68 67 66 67
21 21 22 25 30 31 41 44 41 40 47 47 46 50 53 54 54 55 51 53 56 58 59 60 63 65 64 65 66 68 69 67 65 66 66 64 65 66 66 66 67 67 67 68 68 67 66 66 68
23 28 19 22 31 30 40 45 38 43 48 49 47 47 51 54 55 56 51 53 55 59 59 61 62 64 64 64 65 66 68 68 67 68 69 66 65 65 69 68 68 68 67 68 68 67 66 66 65
25 29 28 28 33 37 37 42 43 49 50 49 49 50 52 53 55 55 55 54 56 58 61 61 62 63 64 63 63 64 64 66 68 67 67 68 67 68 67 68 68 68 68 68 69 69 69 69 68
38 40 36 33 32 41 41 42 49 51 53 52 49 51 55 57 57 59 61 58 58 59 61 61 62 62 63 63 64 63 64 64 65 67 67 70 69 69 68 68 68 68 68 68 69 69 66 67 67

GFSSGP_sfc_30mbdewp_138.txt.gz
Dewpoint
59 64 66 63 58 54 42 41 41 42 43 44 49 48 51 56 52 52 61 62 63 65 68 69 71 71 71 70 71 71 72 72 72 72 72 72 72 72 72 72 71 71 72 72 72 72 72 72 72
56 62 62 62 53 42 42 43 46 45 46 47 59 54 51 50 55 57 59 62 62 64 65 68 73 73 72 71 72 72 72 72 72 72 72 72 72 72 71 71 72 71 71 71 71 72 72 72 72
63 61 60 54 53 45 41 44 45 49 51 50 56 56 50 51 53 55 64 68 68 65 66 71 73 72 72 71 72 72 71 71 71 72 72 72 71 71 72 72 72 72 72 72 72 72 72 72 72
61 60 59 52 48 44 42 44 45 44 51 51 49 49 53 55 53 59 65 69 61 67 68 72 73 72 71 72 72 72 72 72 72 72 72 71 71 71 71 71 71 71 72 72 72 72 72 70 71
60 59 52 51 50 43 43 43 48 50 50 52 50 49 53 54 55 59 62 65 65 64 68 71 73 73 72 72 72 72 71 71 72 72 72 72 71 71 70 70 71 72 72 72 72 72 71 71 71
56 60 51 49 44 44 45 49 52 52 47 51 49 51 53 54 54 56 60 60 60 63 66 70 73 73 71 71 71 72 72 72 72 72 72 71 72 70 71 71 71 71 72 71 70 71 71 71 70
58 58 53 53 48 47 48 52 54 49 52 48 52 51 52 53 53 57 61 62 60 61 64 68 68 72 71 72 72 72 72 72 72 72 72 72 71 72 72 72 71 71 71 72 72 71 70 71 71
60 57 53 55 52 52 52 55 52 51 52 51 51 50 52 53 54 55 60 61 59 59 61 65 68 67 69 71 72 71 72 71 72 72 71 71 70 71 71 72 71 71 71 71 72 72 70 69 68
63 53 52 50 52 53 57 52 52 53 45 50 53 52 53 53 53 54 54 55 59 60 66 66 66 67 70 71 71 71 71 71 72 72 71 70 68 69 70 71 70 70 71 71 71 71 72 71 69
55 51 51 53 55 53 59 58 58 48 47 49 51 53 53 53 54 52 55 55 57 63 65 65 67 66 68 66 71 71 71 70 70 69 71 71 69 69 66 69 70 70 70 70 70 70 72 72 66
56 55 57 54 55 56 57 55 54 51 50 47 51 50 52 53 55 52 57 56 57 59 67 62 65 64 65 69 69 69 69 68 67 65 67 67 64 65 66 69 68 69 70 69 70 70 70 69 70
54 53 55 54 54 52 57 60 54 53 54 56 50 51 52 53 55 55 52 57 59 61 63 68 68 67 66 67 66 67 67 67 67 65 66 67 66 66 64 67 68 67 69 67 67 65 64 63 64
51 53 54 54 53 54 61 58 53 52 52 51 51 51 51 54 59 59 55 57 59 60 61 68 65 59 68 68 67 64 68 64 65 65 67 69 66 66 64 68 65 66 62 65 64 66 62 62 61
57 58 53 55 56 54 58 55 53 55 56 49 49 50 51 54 54 53 58 59 57 61 65 67 66 67 68 69 63 65 67 63 64 64 68 68 67 67 66 66 64 63 68 66 67 66 66 64 60
56 52 53 54 56 55 55 54 54 57 57 56 47 49 53 56 58 56 58 59 59 63 65 64 65 65 68 69 65 67 64 61 62 67 67 67 68 65 71 64 65 68 66 64 64 65 62 60 60
42 46 48 53 56 55 53 50 55 56 56 57 50 55 57 54 55 57 58 58 59 59 64 65 61 64 67 67 67 67 60 61 66 66 65 69 68 68 63 64 62 65 64 67 66 64 64 57 59
38 37 47 47 55 55 52 52 54 57 56 56 56 55 59 57 57 60 59 58 57 61 61 63 66 64 66 67 65 65 63 64 63 64 66 68 67 68 70 69 69 68 69 64 66 64 61 58 59
41 39 42 46 53 54 53 53 54 56 55 55 56 57 58 59 54 58 59 57 59 62 64 63 66 66 67 66 67 65 62 63 64 65 66 68 70 67 68 70 70 66 70 69 65 69 66 61 58
40 39 42 51 51 50 50 51 56 54 56 55 56 55 54 57 54 57 59 56 58 64 65 65 65 67 67 66 65 64 62 65 63 69 70 65 65 70 70 71 66 64 64 66 69 64 64 65 61
36 35 36 45 47 47 47 50 55 55 54 52 54 57 57 56 56 55 58 56 59 64 66 66 67 68 66 68 65 63 63 63 64 68 67 67 67 68 68 69 69 64 63 67 68 70 69 67 61
33 33 39 42 41 43 42 46 54 55 54 53 53 54 57 59 60 60 57 59 61 64 67 68 68 68 67 67 66 66 67 66 66 67 67 66 67 68 68 69 70 70 68 63 71 70 65 63 66
24 35 38 41 36 31 44 40 51 54 55 53 55 54 55 57 62 57 58 57 61 65 67 69 69 69 68 68 65 63 64 64 65 67 67 68 67 67 69 69 69 69 65 60 68 70 57 53 65
23 32 32 36 37 31 33 37 46 53 54 55 55 52 53 53 62 60 60 57 58 65 66 68 69 70 68 69 68 66 65 65 65 65 68 68 69 68 67 68 68 70 64 56 69 70 70 70 68
24 33 34 37 35 27 28 32 47 53 52 54 56 56 53 52 55 60 62 61 57 58 64 68 69 68 69 69 68 67 66 67 65 66 66 66 69 68 68 69 69 70 69 69 69 71 69 72 72
23 22 21 23 22 27 40 38 47 48 53 52 55 57 54 53 52 59 61 60 58 58 59 67 69 69 69 69 68 69 68 65 67 66 65 63 66 66 69 69 70 70 71 70 71 71 71 70 70
21 21 19 27 32 38 39 42 44 49 50 51 53 53 52 51 53 56 57 58 58 59 60 64 69 69 69 69 69 70 69 68 66 68 66 64 66 66 71 71 71 70 71 70 70 71 71 70 70
18 20 19 19 26 31 37 45 47 45 44 45 52 52 52 52 53 57 57 61 60 60 61 64 68 69 69 68 69 69 70 70 67 68 69 67 69 70 70 71 70 70 69 70 70 70 69 70 70
16 20 24 18 20 26 41 43 42 47 53 46 52 55 54 55 55 54 57 60 59 60 60 65 67 68 68 67 68 68 69 70 70 69 68 68 69 69 67 70 70 69 70 70 70 69 69 69 69
24 20 37 35 37 32 38 41 49 49 50 50 47 54 53 52 55 56 55 59 61 61 61 64 66 67 67 66 68 68 69 70 70 69 68 64 71 69 70 69 67 70 69 71 70 70 71 69 69
30 29 37 33 40 43 39 44 52 51 53 48 49 52 55 53 54 57 57 59 60 63 63 62 65 66 66 66 67 67 68 69 69 69 70 71 71 70 70 70 70 69 70 70 70 70 69 68 68

GFSSGP_sfc_30mbdewp_141.txt.gz
Dewpoint
61 60 65 65 57 56 45 44 44 46 50 52 53 53 50 50 52 54 64 66 66 68 70 71 71 71 70 71 72 71 72 72 72 72 72 72 72 72 72 72 72 72 72 72 72 72 72 72 71
57 56 66 62 53 44 44 45 47 52 52 51 53 54 54 54 59 62 63 65 67 69 69 72 73 71 71 72 72 72 72 72 72 72 72 72 72 71 71 71 71 72 72 71 71 72 72 71 72
64 61 57 55 52 45 44 47 48 51 51 49 51 53 54 56 61 64 65 66 66 67 70 72 73 72 72 72 72 72 72 72 72 72 72 72 72 72 72 72 72 72 72 72 72 72 72 71 71
62 63 61 49 49 49 45 47 46 52 53 54 53 52 55 62 63 64 64 67 67 70 72 73 72 71 71 72 71 72 72 72 72 72 71 71 72 72 72 72 72 72 72 72 73 72 71 71 71
63 61 54 52 51 51 47 49 47 52 55 52 53 51 57 63 65 59 58 65 67 70 72 72 72 72 71 72 72 72 72 72 72 72 72 72 71 71 71 71 71 72 72 72 71 71 71 71 71
61 60 51 50 52 53 51 52 51 51 53 53 53 52 57 65 65 64 61 63 68 70 71 72 72 72 72 72 72 72 72 72 72 72 72 71 71 71 72 72 72 71 71 72 72 71 71 70 69
58 57 54 52 53 55 52 49 49 53 51 52 53 51 54 62 64 63 64 65 67 69 71 71 71 72 71 72 72 73 72 72 72 72 72 72 72 72 72 73 72 71 71 69 70 71 71 71 69
61 58 53 53 52 53 59 53 54 54 55 53 52 51 50 60 62 63 63 66 67 68 68 70 71 71 72 72 72 72 72 72 72 72 71 72 72 71 71 73 72 71 71 72 71 70 69 69 68
64 55 50 52 51 55 60 57 56 54 52 52 52 53 52 60 61 62 62 63 66 66 67 69 69 70 71 71 71 72 72 72 72 71 71 72 71 71 71 71 71 71 71 71 72 72 71 70 69
56 51 50 53 55 57 58 58 60 53 51 51 52 53 53 56 58 59 59 62 64 65 67 68 69 70 70 70 71 72 71 72 71 71 71 70 70 70 69 71 71 70 71 71 71 72 72 71 69
59 48 54 53 57 57 57 57 60 56 53 52 53 52 53 53 53 56 59 63 63 65 66 65 68 67 67 70 71 71 71 70 71 70 70 70 70 70 70 70 70 70 71 70 72 72 72 72 71
55 56 56 56 57 58 58 61 59 55 55 56 55 52 53 54 57 55 58 63 63 63 62 64 65 65 68 69 70 70 70 68 66 68 68 69 65 66 67 69 69 69 68 69 69 70 70 69 69
59 58 57 55 57 60 59 58 55 54 54 53 52 52 55 57 56 57 58 63 63 63 65 64 68 67 69 68 67 68 67 67 66 66 66 69 66 65 66 67 68 69 68 69 66 67 66 64 63
57 52 56 54 59 58 55 57 56 57 57 53 51 53 57 56 51 57 60 61 64 66 66 67 64 60 68 67 65 67 69 65 64 66 65 70 67 67 68 67 63 64 67 66 65 63 66 62 60
52 51 56 56 58 57 57 51 52 57 56 53 50 53 55 58 58 58 59 61 65 67 66 61 59 63 66 64 62 64 67 65 65 68 67 68 67 66 67 65 66 67 67 65 66 65 67 63 60
53 54 50 57 53 57 55 48 51 56 55 56 55 53 56 56 57 59 59 62 64 66 66 67 65 68 66 62 63 66 67 66 67 66 69 61 63 70 65 69 65 66 70 69 67 66 64 61 58
42 44 50 52 54 52 55 52 53 55 56 56 55 55 54 58 58 59 59 60 64 65 66 66 65 68 64 66 63 66 68 66 66 66 66 63 66 68 69 70 67 70 68 68 68 66 66 60 59
40 41 47 48 54 55 53 53 53 53 55 54 56 57 53 57 57 59 59 60 63 64 65 65 65 65 68 68 67 68 65 65 66 66 68 70 70 68 69 68 64 67 64 65 65 69 66 62 61
40 41 45 49 49 55 53 52 54 53 55 54 56 57 57 57 58 59 60 60 62 65 66 66 65 65 68 65 66 64 60 65 68 69 67 61 63 70 69 69 62 65 62 62 68 68 68 65 64
38 39 48 52 55 55 51 52 55 54 54 53 56 57 57 58 59 59 59 61 62 64 64 66 66 67 66 65 67 63 62 64 67 69 63 57 61 67 70 65 60 58 56 65 64 69 69 67 66
34 36 44 42 45 45 48 49 55 54 55 55 55 56 58 59 59 60 59 61 64 63 65 65 66 66 66 67 68 66 66 68 67 67 67 65 66 69 70 69 67 68 67 67 64 67 62 61 61
31 36 41 41 41 37 42 41 53 55 55 54 53 55 56 58 61 60 61 60 64 64 67 67 67 67 66 65 66 65 65 64 65 65 67 67 68 68 70 69 67 66 64 63 64 67 58 60 66
26 32 32 35 35 34 34 40 47 55 54 54 54 53 53 56 61 59 60 59 64 67 68 68 68 67 68 67 68 64 65 65 64 66 68 68 68 67 68 70 68 66 63 62 63 69 70 69 67
24 31 34 35 34 32 38 40 48 51 53 55 55 54 53 56 59 59 57 61 62 66 68 68 68 67 68 68 68 66 65 66 66 65 67 68 67 67 70 69 69 69 67 66 67 70 70 68 55
21 22 23 31 33 33 39 37 46 53 54 55 55 55 53 54 59 58 60 61 63 66 67 68 68 67 69 67 67 67 68 65 66 68 67 67 67 68 67 70 69 70 70 70 70 70 70 71 70
21 20 20 24 25 30 37 39 45 51 53 54 54 57 55 54 57 60 60 58 60 65 67 68 68 67 69 68 67 69 68 68 66 66 67 67 68 66 67 70 70 70 71 70 69 71 69 71 70
15 19 22 18 26 30 40 46 44 47 50 53 54 58 58 55 53 59 58 56 58 60 66 68 67 67 68 68 69 69 70 68 66 63 70 69 69 67 70 71 70 69 70 71 69 68 68 70 69
12 15 20 33 30 27 40 42 37 45 49 53 53 55 56 54 54 59 59 59 61 59 66 68 68 68 68 68 70 69 69 69 69 69 67 69 69 70 71 68 69 70 70 70 71 69 70 70 69
32 23 36 40 41 34 36 40 46 49 51 53 56 58 58 53 53 57 58 60 63 62 63 68 69 68 67 67 69 68 68 69 70 70 67 67 68 70 69 69 68 69 70 70 71 69 70 69 68
34 33 35 33 37 40 40 41 49 52 53 54 56 60 61 63 59 58 59 62 63 63 65 68 68 68 68 68 68 67 68 70 69 69 69 68 65 69 70 69 67 66 69 69 69 69 69 69 68